Regional Weather Roundup
Issued by NWS

Home | Current Version | Previous Version | Text Only | Print | Product List | Glossary On
Versions: 1 2 3 4 5 6 7 8 9 10 11 12 13 14 15 16 17 18 19 20 21 22 23 24 25 26 27 28 29 30 31 32 33 34 35 36 37 38 39 40 41 42 43 44 45 46 47 48 49 50
000
ASCA44 KEWX 280620
RWRMX

LATIN AMERICA AND CARIBBEAN REGIONAL WEATHER ROUNDUP
NATIONAL WEATHER SERVICE AUSTIN/SAN ANTONIO TX
100 AM CDT MON JUL 28 2014

NOTE: "FAIR" INDICATED FEW OR NO CLOUDS BELOW 12,000 FEET WITH NO
SIGNIFICANT WEATHER AND/OR OBSTRUCTIONS TO VISIBILITY.

BAJA CALIFORNIA

CITY           SKY/WX    TMP DP  RH WIND       PRES   REMARKS
LA PAZ           N/A    N/A N/A N/A MISG        N/A
TIJUANA        PTCLDY    70  61  73 W3        30.04R

NORTHWESTERN MEXICO

CITY           SKY/WX    TMP DP  RH WIND       PRES   REMARKS
CULIACAN         N/A    N/A N/A N/A MISG        N/A

NORTHEASTERN MEXICO

CITY           SKY/WX    TMP DP  RH WIND       PRES   REMARKS
CHIHUAHUA      CLOUDY    75  55  50 SW17      30.22R
MONTERREY      CLEAR     82  64  54 E12       30.02R
REYNOSA        PTCLDY    79  72  78 SE9       30.03S
CD. VICTORIA   CLEAR     81  70  69 S14       30.07R

WESTERN MEXICO

CITY           SKY/WX    TMP DP  RH WIND       PRES   REMARKS
DEL BAJIO      CLEAR     63  54  72 NE6       30.38S
GUADALAJARA    MOCLDY    66  59  77 N10       30.29R
MAZATLAN       CLOUDY    73  68  83 N9        30.04R
P. VALLARTA    CLOUDY    75  72  88 N9        29.98R
ZACATECAS      PTCLDY    61  45  55 SW8       30.39R

CENTRAL MEXICO

CITY           SKY/WX    TMP DP  RH WIND       PRES   REMARKS
MEXICO CITY    PTCLDY    63  52  67 W10       30.42F
MORELIA        CLEAR     55  54  94 CALM      30.34S
QUERETARO      CLEAR     61  54  77 CALM      30.39R
S. LUIS POTOSI CLEAR     61  55  82 CALM      30.37F
TOLUCA         MOCLDY    52  46  82 NE5       30.51F

SOUTHERN MEXICO

CITY           SKY/WX    TMP DP  RH WIND       PRES   REMARKS
ACAPULCO       CLOUDY    79  70  73 N3        29.97R

YUCATAN PENINSULA

CITY           SKY/WX    TMP DP  RH WIND       PRES   REMARKS
CANCUN         PTCLDY    82  77  83 CALM      30.08F HX  91
COZUMEL        CLEAR     75  75 100 CALM      30.07F
MERIDA         MOCLDY    79  72  78 E9        30.06F
TAPACHULA      CLOUDY    79  79 100 CALM      29.95F
TUX. GUTIERREZ CLOUDY    72  70  94 CALM      30.07F

CENTRAL AMERICA

CITY           SKY/WX    TMP DP  RH WIND       PRES   REMARKS
MANAGUA        PTCLDY    77  72  83 CALM      29.89F

CARIBBEAN

CITY           SKY/WX    TMP DP  RH WIND       PRES   REMARKS
ARUBA          PTCLDY    81  77  89 E16       29.97S
CURACAO        PTCLDY    81  77  89 SE9       30.00S
KINGSTON       PTCLDY    84  73  70 E9        30.00F HX  91
NASSAU         PTCLDY    82  73  74 SE3       30.11S
SAN JUAN       PTCLDY    81  75  83 E5        30.08F
SANTO DOMINGO  PTCLDY    77  73  88 E6        30.06S
ST. CROIX      CLEAR     79  73  83 E6        30.07F
ST. MAARTEN    PTCLDY    81  73  78 E7        30.06S
ST. THOMAS     PTCLDY    82  75  78 E7        30.07F

$$



USA.gov is the U.S. government's official web portal to all federal, state and local government web resources and services.